Regional Weather Roundup
Issued by NWS

Home | Current Version | Previous Version | Text Only | Print | Product List | Glossary Off
Versions: 1 2 3 4 5 6 7 8 9 10 11 12 13 14 15 16 17 18 19 20 21 22 23 24 25 26 27 28 29 30 31 32 33 34 35 36 37 38 39 40 41 42 43 44 45 46 47 48 49 50

000
ASUS43 KOAX 162010
RWRNE

WEATHER ROUNDUP FOR NEBRASKA
NATIONAL WEATHER SERVICE OMAHA NE
300 PM CDT TUE SEP 16 2014

NOTES: SATELLITE DATA IS BEING USED TO AUGMENT CLOUD COVER ABOVE
       12000 FEET.
       "FAIR" INDICATES FEW OR NO CLOUDS BELOW 12,000 FEET WITH NO
       SIGNIFICANT WEATHER AND/OR OBSTRUCTIONS TO VISIBILITY.

  * THESE STATIONS DO NOT REPORT WEATHER SUCH AS RAIN...SNOW OR FOG.

NEZ001>004-019>022-054>056-162100-
NEBRASKA PANHANDLE

CITY           SKY/WX    TMP DP  RH WIND       PRES   REMARKS
SCOTTSBLUFF    MOSUNNY   83  50  31 W10       30.05F
ALLIANCE       MOSUNNY   83  45  26 NW7       30.03F
CHADRON        MOSUNNY   80  48  32 W6        30.00S
KIMBALL        SUNNY     83  36  18 N16       30.10S
SIDNEY         MOSUNNY   85  42  22 N12       30.08R
$$

NEZ057>060-069>072-079>082-162100-
SOUTHWEST NEBRASKA

CITY           SKY/WX    TMP DP  RH WIND       PRES   REMARKS
NORTH PLATTE   SUNNY     73  57  57 VRB7G21   30.01F
IMPERIAL       SUNNY     82  54  37 SW6       30.00F
LEXINGTON      CLOUDY    66  58  74 S12       30.04F
MCCOOK         SUNNY     75  57  53 S16G22    30.02F
OGALLALA       SUNNY     80  57  46 W5        30.00F
$$

NEZ005>010-023>029-035>040-094-162100-
NORTH CENTRAL NEBRASKA

CITY           SKY/WX    TMP DP  RH WIND       PRES   REMARKS
VALENTINE      MOSUNNY   79  56  45 SW5       29.97F
AINSWORTH      MOSUNNY   75  56  51 SW9       29.98F
BROKEN BOW     CLOUDY    66  55  67 S15G21    30.04F
O`NEILL        PTSUNNY   69  57  65 S15G23    30.02F
ORD            CLOUDY    68  55  63 S13       30.02F
THEDFORD       SUNNY     77  57  50 SW9G17    30.00F
$$

NEZ041-046>049-061>064-073>077-083>087-162100-
SOUTH CENTRAL NEBRASKA

CITY           SKY/WX    TMP DP  RH WIND       PRES   REMARKS
GRAND ISLAND   PTSUNNY   70  54  56 S10       30.07F
AURORA         MOSUNNY   70  48  44 S12G17    30.07F
HASTINGS       CLOUDY    66  51  58 S12       30.07F
HEBRON         CLOUDY    70  46  42 S8        30.08F
HOLDREGE       CLOUDY    66  54  64 S13G21    30.06F
KEARNEY *      CLOUDY    64  54  68 SE15      30.07F
YORK           SUNNY     68  50  52 S9        30.08F
$$

NEZ011>018-030>034-042>045-162100-
NORTHEAST NEBRASKA

CITY           SKY/WX    TMP DP  RH WIND       PRES   REMARKS
NORFOLK        MOSUNNY   69  48  47 S14       30.06F
ALBION         MOSUNNY   68  52  56 S13G20    30.06F
BLAIR          SUNNY     68  48  48 S10       30.10F
COLUMBUS *     SUNNY     68  48  49 S13       30.09F
FREMONT        SUNNY     68  46  45 S6        30.10F
TEKAMAH        SUNNY     68  47  46 S8G17     30.09F
WAYNE          SUNNY     69  49  48 S12       30.07F
$$

NEZ050>053-065>068-078-088>093-162100-
SOUTHEAST NEBRASKA

CITY           SKY/WX    TMP DP  RH WIND       PRES   REMARKS
LINCOLN        SUNNY     70  47  43 S9        30.10F
OMAHA EPPLEY   MOSUNNY   67  48  50 SE9       30.11F
BEATRICE       SUNNY     69  48  46 S7        30.10F
FALLS CITY     SUNNY     70  50  49 S7        30.11F
NEBRASKA CITY  SUNNY     67  41  38 S6        30.11F
PLATTSMOUTH    SUNNY     67  46  46 SE3       30.11F
$$

NEZ044-045-051>053-067-162100-
OMAHA AREA

CITY           SKY/WX    TMP DP  RH WIND       PRES   REMARKS
OMAHA EPPLEY   MOSUNNY   67  48  50 SE9       30.11F
BLAIR          SUNNY     68  48  48 S10       30.10F
FREMONT        SUNNY     68  46  45 S6        30.10F
MILLARD        SUNNY     67  50  53 SW6       30.10F
OFFUTT AFB     SUNNY     67  53  61 SE7       30.10F
PLATTSMOUTH    SUNNY     67  46  46 SE3       30.11F
WAHOO          FAIR      70  43  38 SE8       30.09F
$$


USA.gov is the U.S. government's official web portal to all federal, state and local government web resources and services.